Flag for Germany Weather past 2 weeks in Schwabach, Bavaria, Germany

30 °F

Ice fog.

Feels Like: 30 °F
Forecast: 27 / 37 °F
Wind: 1 mph from North

Location: Nuernberg

Current Time: Nov 27, 2015 at 3:02:59 AM

Latest Report: Nov 27, 2015 at 2:20 AM

Visibility: 0 mi

Pressure: 30.15 "Hg

Humidity: 100%

Dew point: 30 °F

Location of SchwabachLocation

Historic Weather in Schwabach — Graph


Schwabach temperature yesterday

Maximum temperature yesterday: 39 °F (at 10:50 AM)
Minimum temperature yesterday: 32 °F (at 10:20 PM)
Average temperature yesterday: 38 °F

Past Weeks' High & Low Weather Summary

High61 °F (Nov 16, 12:50 PM)100% (Nov 12, 11:50 PM)30.39 "Hg (Nov 12, 11:50 PM)
Low30 °F (Nov 23, 1:20 AM)31% (Nov 16, 1:20 PM)29.42 "Hg (Nov 21, 12:20 PM)
Average44 °F83%29.98 "Hg
* Reported Nov 12 1:20 AM — Nov 27 1:50 AM, Schwabach, Weather by CustomWeather, © 2015

Note: Actual official high and low records may vary slightly from our data, if they occured in-between our weather recording intervals... More about our weather records


Schwabach weather history for previous 24 hours

Time TempWeatherWind HumidityBarometerVisibility
1:50 AM
Fri, Nov 27
32 °FIce fog.2 mph93%30.15 "Hg0 mi
1:20 AM32 °FIce fog.2 mph100%30.15 "Hg0 mi
12:50 AM32 °FIce fog.2 mph100%30.15 "Hg0 mi
12:20 AM34 °FFog.2 mph93%30.15 "Hg0 mi
11:50 PM
Thu, Nov 26
34 °FFog.1 mph100%30.15 "Hg0 mi
10:20 PM32 °FIce fog.5 mph93%30.15 "Hg0 mi
9:50 PM34 °FFog.2 mph93%30.15 "Hg1 mi
9:20 PM36 °FFog.No wind93%30.12 "Hg5 mi
8:50 PM36 °FFog.2 mph93%30.12 "HgN/A
8:20 PM37 °FFog.1 mph93%30.12 "HgN/A
7:50 PM37 °FFog.1 mph100%30.12 "HgN/A
7:20 PM37 °FPassing clouds.No wind100%30.09 "HgN/A
6:50 PM37 °FPartly cloudy.1 mph100%30.09 "HgN/A
6:20 PM39 °FPartly cloudy.1 mph93%30.09 "HgN/A
5:50 PM39 °FPartly cloudy.2 mph93%30.07 "HgN/A
5:20 PM39 °FPassing clouds.1 mph87%30.07 "HgN/A
4:50 PM39 °FPassing clouds.2 mph93%30.04 "HgN/A
4:20 PM39 °FPartly sunny.2 mph93%30.04 "HgN/A
3:50 PM39 °FPartly sunny.1 mph93%30.01 "HgN/A
3:20 PM39 °FPartly sunny.2 mph93%30.01 "HgN/A
2:50 PM39 °FMore clouds than sun.2 mph93%30.01 "HgN/A
2:20 PM39 °FMore clouds than sun.3 mph93%29.98 "HgN/A
1:50 PM39 °FDrizzle. More clouds than sun.3 mph93%29.98 "HgN/A
1:20 PM39 °FDrizzle. More clouds than sun.2 mph87%29.98 "HgN/A
12:50 PM39 °FDrizzle. More clouds than sun.3 mph87%29.95 "HgN/A
12:20 PM39 °FDrizzle. Partly sunny.3 mph93%29.95 "HgN/A
11:50 AM39 °FDrizzle. Partly sunny.2 mph93%29.95 "HgN/A
11:20 AM39 °FDrizzle. Mostly cloudy.3 mph87%29.95 "Hg5 mi
10:50 AM39 °FDrizzle. Partly sunny.3 mph93%29.92 "Hg4 mi
10:20 AM37 °FDrizzle. Partly sunny.3 mph100%29.92 "Hg4 mi
9:50 AM37 °FDrizzle. Partly sunny.3 mph93%29.92 "Hg4 mi
9:20 AM37 °FDrizzle. Partly sunny.2 mph100%29.89 "Hg4 mi
8:50 AM37 °FDrizzle. Low clouds.1 mph93%29.89 "Hg4 mi
8:20 AM37 °FChilly.1 mph93%29.86 "HgN/A
7:50 AM37 °FDrizzle. Low clouds.1 mph93%29.86 "Hg4 mi
7:20 AM37 °FDrizzle. Low clouds.1 mph93%29.83 "Hg5 mi
6:50 AM36 °FDrizzle. Low clouds.2 mph100%29.83 "Hg5 mi
6:20 AM37 °FPassing clouds.1 mph93%29.83 "Hg5 mi
5:50 AM37 °FPassing clouds.1 mph93%29.80 "Hg6 mi
5:20 AM37 °FPassing clouds.5 mph93%29.80 "Hg6 mi
4:50 AM37 °FPassing clouds.3 mph93%29.80 "Hg4 mi
4:20 AM37 °FPassing clouds.1 mph93%29.77 "Hg4 mi
3:50 AM37 °FFog.2 mph93%29.77 "Hg3 mi
3:20 AM37 °FFog.1 mph93%29.77 "Hg3 mi
Weather by CustomWeather, © 2015

See weather overviewHow to use our weather pages